Weather History for Middletown, OH

Change the Weather History Date:

Sunday, January 20, 2013

  Actual Average (KDAY) Record (KDAY)
Temperature  
Mean Temperature 37 °F 27 °F  
Max Temperature 47 °F 35 °F 69 °F (1906)
Min Temperature 27 °F 20 °F -24 °F (1985)
Degree Days  
Heating Degree Days 28 38  
Month to date heating degree days 754  
Since 1 July heating degree days 2913  
Cooling Degree Days 0 0  
Month to date cooling degree days 0  
Year to date cooling degree days 0  
Moisture  
Dew Point 20 °F    
Average Humidity 59    
Maximum Humidity 76    
Minimum Humidity 43    
Precipitation  
Precipitation 0.00 in 0.08 in 1.44 in (1935)
Month to date precipitation 1.83  
Year to date precipitation 1.83  
Snow  
Snow 0.00 in 0.30 in 6.10 in (1978)
Month to date snowfall 5.1  
Since 1 July snowfall 10.6  
Snow Depth -    
Sea Level Pressure  
Sea Level Pressure 30.15 in    
Wind  
Wind Speed 12 mph (WNW)    
Max Wind Speed 23 mph    
Max Gust Speed 34 mph    
Visibility 10 miles    
Events      
T = Trace of Precipitation, MM = Missing Value Source: NWS Daily Summary

Daily Weather History Graph

Daily Weather History Graph

Search for Another Location

Airport:

Trip Planner

Search our weather history database for the weather conditions in past years. The results will help you decide how hot, cold, wet, or windy it might be!

Date:

Astronomy

Jan. 20, 2013 Rise Set
Actual Time 7:53 AM EST 5:43 PM EST
Civil Twilight 7:24 AM EST 6:13 PM EST
Nautical Twilight 6:51 AM EST 6:46 PM EST
Astronomical Twilight 6:19 AM EST 7:18 PM EST
Moon 12:44 PM EST (1/20) 2:25 AM EST (1/20)
Length of Visible Light 10h 48m
Length of Day
9h 50m
Waxing Gibbous, 66% of the Moon is Illuminated
Jan 20
Waxing Gibbous
Jan 26
Full
Feb 3
Last Quarter
Feb 10
New
Feb 17
First Quarter

Hourly Weather History & Observations

Time (EST) Temp. Windchill Dew Point Humidity Pressure Visibility Wind Dir Wind Speed Gust Speed Precip Events Conditions
12:15 AM 47.7 °F - 34.5 °F 60% 29.92 in 10.0 mi SW 17.3 mph 23.0 mph N/A   Clear
12:35 AM 47.7 °F - 35.1 °F 62% 29.92 in 10.0 mi SW 16.1 mph 23.0 mph N/A   Clear
12:55 AM 47.7 °F - 35.8 °F 63% 29.92 in 10.0 mi SW 17.3 mph 24.2 mph N/A   Clear
1:15 AM 47.7 °F - 36.7 °F 66% 29.92 in 10.0 mi SW 12.7 mph 23.0 mph N/A   Clear
1:35 AM 47.7 °F - 37.6 °F 68% 29.92 in 10.0 mi WSW 15.0 mph 23.0 mph N/A   Clear
1:55 AM 47.7 °F - 38.5 °F 70% 29.92 in 10.0 mi WSW 13.8 mph 21.9 mph N/A   Clear
2:15 AM 47.3 °F - 38.8 °F 72% 29.93 in 10.0 mi WSW 13.8 mph 19.6 mph N/A   Clear
2:35 AM 47.7 °F - 39.7 °F 74% 29.94 in 10.0 mi WSW 13.8 mph - N/A   Clear
2:55 AM 45.1 °F 38.4 °F 37.9 °F 76% 29.95 in 10.0 mi West 15.0 mph 19.6 mph N/A   Clear
3:15 AM 47.7 °F - 39.7 °F 74% 29.97 in 10.0 mi West 17.3 mph 25.3 mph N/A   Mostly Cloudy
3:35 AM 47.7 °F - 39.7 °F 74% 29.98 in 10.0 mi West 16.1 mph 25.3 mph N/A   Overcast
3:55 AM 42.8 °F 35.4 °F 34.2 °F 72% 30.00 in 10.0 mi WNW 15.0 mph 31.1 mph N/A   Scattered Clouds
4:15 AM 41.4 °F 31.6 °F 31.6 °F 68% 30.02 in 10.0 mi West 23.0 mph 34.5 mph N/A   Clear
4:35 AM 40.1 °F 29.9 °F 26.4 °F 58% 30.03 in 10.0 mi West 23.0 mph 34.5 mph N/A   Clear
4:55 AM 38.8 °F 29.1 °F 24.8 °F 57% 30.04 in 10.0 mi WNW 19.6 mph 31.1 mph N/A   Clear
5:15 AM 37.6 °F 26.9 °F 21.6 °F 52% 30.04 in 10.0 mi West 21.9 mph 28.8 mph N/A   Clear
5:35 AM 37.2 °F 28.3 °F 21.6 °F 53% 30.05 in 10.0 mi WNW 15.0 mph 27.6 mph N/A   Clear
5:55 AM 35.1 °F 27.4 °F 20.8 °F 56% 30.06 in 10.0 mi WNW 10.4 mph 17.3 mph N/A   Clear
6:15 AM 34.2 °F 26.8 °F 21.0 °F 59% 30.07 in 10.0 mi West 9.2 mph 17.3 mph N/A   Clear
6:35 AM 32.5 °F 22.3 °F 16.3 °F 51% 30.08 in 10.0 mi WNW 15.0 mph 23.0 mph N/A   Clear
6:55 AM 32.5 °F 21.9 °F 17.2 °F 53% 30.10 in 10.0 mi WNW 16.1 mph 23.0 mph N/A   Clear
7:15 AM 32.5 °F 23.2 °F 17.4 °F 54% 30.11 in 10.0 mi WNW 12.7 mph 19.6 mph N/A   Clear
7:35 AM 30.2 °F 19.8 °F 15.6 °F 55% 30.12 in 10.0 mi WNW 13.8 mph 24.2 mph N/A   Clear
7:55 AM 30.2 °F 18.9 °F 14.4 °F 52% 30.13 in 10.0 mi WNW 16.1 mph 23.0 mph N/A   Clear
8:15 AM 30.2 °F 19.8 °F 16.0 °F 56% 30.15 in 10.0 mi NW 13.8 mph 19.6 mph N/A   Clear
8:35 AM 29.8 °F 20.9 °F 16.2 °F 57% 30.17 in 10.0 mi NNW 10.4 mph 16.1 mph N/A   Clear
8:55 AM 29.5 °F 19.9 °F 16.7 °F 59% 30.18 in 10.0 mi WNW 11.5 mph 17.3 mph N/A   Clear
9:15 AM 29.8 °F 18.9 °F 16.9 °F 59% 30.19 in 10.0 mi WNW 15.0 mph 23.0 mph N/A   Clear
9:35 AM 28.0 °F 16.5 °F 14.0 °F 56% 30.21 in 10.0 mi WNW 15.0 mph 21.9 mph N/A   Clear
9:55 AM 30.0 °F 21.1 °F 16.5 °F 57% 30.22 in 10.0 mi NW 10.4 mph - N/A   Clear
10:15 AM 30.0 °F 22.4 °F 17.1 °F 59% 30.23 in 10.0 mi NW 8.1 mph 18.4 mph N/A   Clear
10:35 AM 30.0 °F 19.5 °F 16.5 °F 57% 30.25 in 10.0 mi NW 13.8 mph 18.4 mph N/A   Clear
10:55 AM 30.2 °F 21.3 °F 16.9 °F 58% 30.25 in 10.0 mi NNW 10.4 mph 17.3 mph N/A   Clear
11:15 AM 30.2 °F 22.6 °F 16.7 °F 57% 30.25 in 10.0 mi NW 8.1 mph - N/A   Clear
11:35 AM 30.4 °F 23.6 °F 17.6 °F 59% 30.25 in 10.0 mi WNW 6.9 mph 10.4 mph N/A   Clear
11:55 AM 30.7 °F 24.1 °F 17.4 °F 58% 30.26 in 10.0 mi NW 6.9 mph 11.5 mph N/A   Clear
12:15 PM 32.5 °F 24.8 °F 17.4 °F 54% 30.25 in 10.0 mi NNW 9.2 mph - N/A   Clear
12:35 PM 32.5 °F 23.7 °F 15.6 °F 50% 30.23 in 10.0 mi NW 11.5 mph - N/A   Clear
12:55 PM 32.5 °F 24.2 °F 16.3 °F 51% 30.23 in 10.0 mi WNW 10.4 mph - N/A   Clear
1:15 PM 32.5 °F 26.2 °F 16.0 °F 51% 30.22 in 10.0 mi West 6.9 mph - N/A   Clear
1:35 PM 32.5 °F - 15.3 °F 49% 30.22 in 10.0 mi Calm Calm - N/A   Clear
1:55 PM 32.5 °F 27.1 °F 15.6 °F 50% 30.21 in 10.0 mi WNW 5.8 mph - N/A   Clear
2:15 PM 32.5 °F 24.2 °F 15.3 °F 49% 30.21 in 10.0 mi WNW 10.4 mph - N/A   Clear
2:35 PM 32.5 °F 24.2 °F 15.8 °F 50% 30.21 in 10.0 mi WNW 10.4 mph - N/A   Clear
2:55 PM 32.5 °F 25.5 °F 12.4 °F 43% 30.20 in 10.0 mi WNW 8.1 mph - N/A   Clear
3:15 PM 32.5 °F 24.2 °F 12.9 °F 44% 30.19 in 10.0 mi West 10.4 mph - N/A   Clear
3:35 PM 32.5 °F 26.2 °F 14.0 °F 46% 30.20 in 10.0 mi WNW 6.9 mph - N/A   Clear
3:55 PM 32.7 °F 26.4 °F 14.5 °F 47% 30.20 in 10.0 mi West 6.9 mph - N/A   Clear
4:15 PM 32.5 °F 27.1 °F 15.3 °F 49% 30.20 in 10.0 mi WNW 5.8 mph - N/A   Clear
4:35 PM 32.5 °F 25.5 °F 15.4 °F 49% 30.20 in 10.0 mi WNW 8.1 mph - N/A   Clear
4:55 PM 32.5 °F 25.5 °F 15.3 °F 49% 30.22 in 10.0 mi WNW 8.1 mph - N/A   Clear
5:15 PM 30.2 °F 23.4 °F 13.8 °F 51% 30.23 in 10.0 mi NW 6.9 mph - N/A   Clear
5:35 PM 30.2 °F 21.3 °F 13.6 °F 50% 30.23 in 10.0 mi NW 10.4 mph - N/A   Mostly Cloudy
5:55 PM 30.2 °F 23.4 °F 14.4 °F 52% 30.23 in 10.0 mi NW 6.9 mph - N/A   Overcast
6:15 PM 29.1 °F 22.1 °F 14.5 °F 55% 30.24 in 10.0 mi WNW 6.9 mph - N/A   Mostly Cloudy
6:35 PM 28.0 °F 22.8 °F 15.1 °F 58% 30.23 in 10.0 mi WNW 4.6 mph - N/A   Overcast
6:55 PM 27.9 °F 22.6 °F 15.1 °F 59% 30.23 in 10.0 mi WNW 4.6 mph - N/A   Mostly Cloudy
7:15 PM 28.2 °F 23.1 °F 15.1 °F 58% 30.22 in 10.0 mi NW 4.6 mph - N/A   Clear
7:35 PM 27.9 °F - 16.2 °F 62% 30.22 in 10.0 mi Calm Calm - N/A   Clear
7:55 PM 27.9 °F 24.0 °F 16.3 °F 62% 30.22 in 10.0 mi NW 3.5 mph - N/A   Clear
8:15 PM 27.9 °F 24.0 °F 15.6 °F 60% 30.22 in 10.0 mi NW 3.5 mph - N/A   Clear
8:35 PM 27.9 °F 24.0 °F 17.1 °F 64% 30.22 in 10.0 mi NW 3.5 mph - N/A   Clear
8:55 PM 27.9 °F 24.0 °F 17.6 °F 65% 30.22 in 10.0 mi NNW 3.5 mph - N/A   Clear
9:15 PM 27.9 °F 24.0 °F 18.0 °F 66% 30.21 in 10.0 mi NNW 3.5 mph - N/A   Scattered Clouds
9:35 PM 27.9 °F - 18.1 °F 67% 30.21 in 10.0 mi Calm Calm - N/A   Clear
9:55 PM 27.9 °F 24.0 °F 17.8 °F 66% 30.21 in 10.0 mi NNW 3.5 mph - N/A   Clear
10:15 PM 27.9 °F 24.0 °F 18.0 °F 66% 30.20 in 10.0 mi NNW 3.5 mph - N/A   Scattered Clouds
10:35 PM 27.9 °F 24.0 °F 18.7 °F 68% 30.21 in 10.0 mi NW 3.5 mph - N/A   Clear
10:55 PM 27.9 °F 22.6 °F 19.2 °F 70% 30.21 in 10.0 mi North 4.6 mph - N/A   Scattered Clouds
11:15 PM 27.9 °F 22.6 °F 19.0 °F 69% 30.21 in 10.0 mi NW 4.6 mph - N/A   Mostly Cloudy
11:35 PM 27.9 °F 24.0 °F 19.4 °F 71% 30.20 in 10.0 mi NW 3.5 mph - N/A   Mostly Cloudy
11:55 PM 27.9 °F 21.5 °F 19.8 °F 72% 30.20 in 10.0 mi NW 5.8 mph - N/A   Mostly Cloudy